LFOBEGKB

Guest
Details From LFOB - Beauvais-Tille
To EGKB - Biggin Hill
Flight Number -
Tags generated
Created
Modified
Stats Distance 138 nm / 255 km
Max Altitude 14,400 ft / 4,389 m
Waypoints 3
Social Downloads 0
Likes 0
Share VATSIM

Download

Looking for another format? Having issues loading an existing format? Contact us
Advertisement - Login to hide

Notes

Basic altitude profile: - Ascent Rate: 2500ft/min - Ascent Speed: 250kts - Cruise Altitude: 35000ft - Cruise Speed: 420kts - Descent Rate: 1500ft/min - Descent Speed: 250kts

Route

LFOB GUBAR EGKB

ID Type Via Altitude Latitude Longitude Leg Dist Tot Dist Heading (true) Name
O LFOB APT - 0 ft / 0 m 49.45600˚ 2.11891˚ - 0 nm - Beauvais-Tille
GUBAR FIX - 14,400 ft / 4,389 m 50.36028˚ 1.15056˚ 65 nm 65 nm 326° / 325° -
O EGKB APT - 0 ft / 0 m 51.32671˚ 0.03288˚ 71 nm 137 nm 324° / 323° Biggin Hill

Altitude Profile

Advertisement - Login to hide

LFOB

Details ICAO LFOB (BVA)
Name Beauvais-Tille
Region France
Timezone Europe/Paris (UTC+2.0)
Stats Elevation 358 ft / 109 m (AMSL)
Location 49.456000° 2.118914°
Runways 2
Magnetic Variation 0.533° E

METAR

LFOB 201730Z AUTO 02008KT CAVOK 20/10 Q1017 TEMPO BKN060CB

Decode

TAF

TAF LFOB 201700Z 2018/2118 03008KT CAVOK PROB30 TEMPO 2019/2022 BKN060CB BECMG 2100/2103 3000 BR PROB40 2103/2106 0300 BCFG BECMG 2106/2109 9999 NSW TEMPO 2111/2118 BKN040CB PROB30 TEMPO 2111/2116 TSRA

Decode

Departure Runways

ID Width Length Bearing (true) Bearing (mag) Surface Threshold Offset Overrun Length
04 82 ft / 25 m 2,321 ft / 707 m 41.41° 40.88° Asphalt 0 ft / 0 m 0 ft / 0 m
12 148 ft / 45 m 7,954 ft / 2,424 m 123.73° 123.20° Asphalt 148 ft / 45 m 0 ft / 0 m
22 82 ft / 25 m 2,321 ft / 707 m 221.41° 220.88° Asphalt 0 ft / 0 m 0 ft / 0 m
30 148 ft / 45 m 7,954 ft / 2,424 m 303.75° 303.22° Asphalt 0 ft / 0 m 0 ft / 0 m

EGKB

Details ICAO EGKB (BQH)
Name Biggin Hill
Region United Kingdom
Timezone Europe/London (UTC+1.0)
Stats Elevation 598 ft / 182 m (AMSL)
Location 51.326710° 0.032876°
Runways 2
Magnetic Variation 0.311° W

METAR

EGKB 201720Z 06008KT 030V090 9999 FEW035 17/10 Q1020

Decode

TAF

Not found

Destination Runways

ID Width Length Bearing (true) Bearing (mag) Surface Threshold Offset Overrun Length
03 148 ft / 45 m 5,915 ft / 1,803 m 25.53° 25.84° Asphalt 804 ft / 245 m 0 ft / 0 m
11 59 ft / 18 m 2,579 ft / 786 m 105.47° 105.78° Asphalt 0 ft / 0 m 0 ft / 0 m
21 148 ft / 45 m 5,915 ft / 1,803 m 205.53° 205.84° Asphalt 0 ft / 0 m 0 ft / 0 m
29 59 ft / 18 m 2,579 ft / 786 m 285.48° 285.79° Asphalt 0 ft / 0 m 0 ft / 0 m

Approach Navaids

Runway Type Ident Frequency Range Bearing (true) Bearing (mag) Slope Elevation
21 Localiser IBGH 109.35 MHz 18 nm / 33 km 205.65° 205.96° - 598 ft / 182 m (AMSL)
21 Glidescope IBGH 109.35 MHz 10 nm / 19 km 205.53° 205.84° 3.00° 598 ft / 182 m (AMSL)
21 DME IBGH 109.35 MHz 18 nm / 33 km - - - 570 ft / 174 m (AMSL)